UPS2307 KEWR-KSDF

Flight info

Callsign UPS2307
Flight time 1h 40m
Altitude 36000
Route PARKE J6 LRP/N0472F320 J6 HVQ Q68 YOCKY LEDDL1
Aircraft B763/H-SDE3FGHIM3RWXY/LB1

Departure

Time 2026-04-21 12:06
Airport Newark Liberty International Airport (KEWR)

Arrival

Time 2026-04-21 13:47
Airport Louisville Muhammad Ali International Airport (KSDF)
Time Latitude Longitude Altitude Speed Heading
2026-04-21 11:34 40.70441 -74.17354 12 ft 0 kts 92°
2026-04-21 11:51 40.70441 -74.17355 12 ft 0 kts 92°
2026-04-21 11:51 40.70442 -74.17371 12 ft 3 kts 92°
2026-04-21 11:52 40.70444 -74.17400 12 ft 3 kts 101°
2026-04-21 11:52 40.70450 -74.17425 12 ft 2 kts 129°
2026-04-21 11:52 40.70465 -74.17443 12 ft 2 kts 149°
2026-04-21 11:52 40.70482 -74.17450 12 ft 3 kts 178°
2026-04-21 11:53 40.70487 -74.17451 12 ft 0 kts 178°
2026-04-21 11:53 40.70486 -74.17451 12 ft 0 kts 178°
2026-04-21 11:53 40.70486 -74.17450 12 ft 0 kts 178°
2026-04-21 11:58 40.70457 -74.17449 12 ft 7 kts 179°
2026-04-21 11:58 40.70392 -74.17445 12 ft 10 kts 172°
2026-04-21 11:59 40.70346 -74.17381 12 ft 11 kts 94°
2026-04-21 11:59 40.70341 -74.17265 12 ft 14 kts 94°
2026-04-21 11:59 40.70330 -74.17127 12 ft 16 kts 96°
2026-04-21 11:59 40.70319 -74.16964 12 ft 18 kts 94°
2026-04-21 12:00 40.70307 -74.16781 12 ft 21 kts 97°
2026-04-21 12:00 40.70294 -74.16589 13 ft 15 kts 95°
2026-04-21 12:00 40.70287 -74.16492 13 ft 6 kts 98°
2026-04-21 12:00 40.70258 -74.16460 13 ft 6 kts 179°
2026-04-21 12:01 40.70213 -74.16475 13 ft 7 kts 185°
2026-04-21 12:01 40.70149 -74.16478 13 ft 10 kts 182°
2026-04-21 12:01 40.70068 -74.16498 13 ft 13 kts 204°
2026-04-21 12:01 40.69980 -74.16559 13 ft 15 kts 208°
2026-04-21 12:02 40.69874 -74.16630 13 ft 18 kts 206°
2026-04-21 12:02 40.69614 -74.16795 13 ft 23 kts 205°
2026-04-21 12:02 40.69462 -74.16890 13 ft 25 kts 206°
2026-04-21 12:03 40.69295 -74.16996 13 ft 27 kts 205°
2026-04-21 12:03 40.69117 -74.17107 13 ft 29 kts 206°
2026-04-21 12:03 40.68938 -74.17222 13 ft 23 kts 206°
2026-04-21 12:03 40.68787 -74.17317 13 ft 25 kts 206°
2026-04-21 12:04 40.68623 -74.17420 13 ft 27 kts 205°
2026-04-21 12:04 40.68445 -74.17532 13 ft 29 kts 206°
2026-04-21 12:04 40.68305 -74.17622 13 ft 18 kts 206°
2026-04-21 12:04 40.68221 -74.17661 13 ft 6 kts 152°
2026-04-21 12:05 40.68198 -74.17603 13 ft 8 kts 106°
2026-04-21 12:05 40.68201 -74.17529 13 ft 8 kts 54°
2026-04-21 12:05 40.68221 -74.17511 13 ft 0 kts 24°
2026-04-21 12:05 40.68235 -74.17503 13 ft 4 kts 24°
2026-04-21 12:06 40.68316 -74.17455 13 ft 24 kts 24°
2026-04-21 12:06 40.68638 -74.17252 13 ft 84 kts 26°
2026-04-21 12:06 40.69377 -74.16784 30 ft 148 kts 24°
2026-04-21 12:06 40.70335 -74.16160 773 ft 155 kts 32°
2026-04-21 12:07 40.71116 -74.15353 1716 ft 148 kts 41°
2026-04-21 12:07 40.71917 -74.14383 2315 ft 162 kts 42°
2026-04-21 12:07 40.72771 -74.13359 2922 ft 177 kts 42°
2026-04-21 12:07 40.73809 -74.12122 2978 ft 218 kts 41°
2026-04-21 12:08 40.75118 -74.11092 2960 ft 221 kts 13°
2026-04-21 12:08 40.76611 -74.11191 2992 ft 220 kts 339°
2026-04-21 12:08 40.77824 -74.12433 3001 ft 227 kts 305°
2026-04-21 12:08 40.78354 -74.14407 2998 ft 231 kts 279°
2026-04-21 12:09 40.78553 -74.16482 2967 ft 230 kts 279°
2026-04-21 12:09 40.78766 -74.18572 2966 ft 229 kts 279°
2026-04-21 12:09 40.78979 -74.20666 2967 ft 231 kts 280°
2026-04-21 12:09 40.79201 -74.22835 3013 ft 248 kts 279°
2026-04-21 12:10 40.79440 -74.25159 3713 ft 265 kts 279°
2026-04-21 12:10 40.79673 -74.27465 5303 ft 255 kts 280°
2026-04-21 12:10 40.79907 -74.29760 6572 ft 257 kts 281°
2026-04-21 12:10 40.80140 -74.32038 7810 ft 258 kts 281°
2026-04-21 12:11 40.80379 -74.34377 8985 ft 262 kts 282°
2026-04-21 12:11 40.80619 -74.36723 10170 ft 264 kts 282°
2026-04-21 12:11 40.80871 -74.39160 11114 ft 276 kts 283°
2026-04-21 12:11 40.81137 -74.41705 11873 ft 294 kts 283°
2026-04-21 12:12 40.81423 -74.44443 12670 ft 312 kts 283°
2026-04-21 12:12 40.81726 -74.47340 13435 ft 330 kts 282°
2026-04-21 12:12 40.82050 -74.50436 14187 ft 349 kts 282°
2026-04-21 12:12 40.82384 -74.53651 15205 ft 359 kts 282°
2026-04-21 12:13 40.82708 -74.56898 16313 ft 365 kts 281°
2026-04-21 12:13 40.82643 -74.60272 17301 ft 382 kts 266°
2026-04-21 12:13 40.81947 -74.63673 18282 ft 395 kts 257°
2026-04-21 12:13 40.80741 -74.66971 19192 ft 411 kts 246°
2026-04-21 12:14 40.79269 -74.70260 20089 ft 414 kts 250°
2026-04-21 12:14 40.78052 -74.73650 21056 ft 414 kts 253°
2026-04-21 12:14 40.76920 -74.77148 21844 ft 419 kts 256°
2026-04-21 12:14 40.75850 -74.80695 22681 ft 423 kts 257°
2026-04-21 12:15 40.74804 -74.84297 23554 ft 425 kts 258°
2026-04-21 12:15 40.73767 -74.87958 24328 ft 430 kts 258°
2026-04-21 12:15 40.72734 -74.91653 25065 ft 434 kts 258°
2026-04-21 12:15 40.71702 -74.95374 25838 ft 437 kts 259°
2026-04-21 12:16 40.70663 -74.99139 26535 ft 442 kts 259°
2026-04-21 12:16 40.69613 -75.02948 27196 ft 448 kts 259°
2026-04-21 12:16 40.68502 -75.06795 27894 ft 455 kts 255°
2026-04-21 12:16 40.66981 -75.10519 28534 ft 469 kts 248°
2026-04-21 12:17 40.65318 -75.14168 29208 ft 470 kts 249°
2026-04-21 12:17 40.63621 -75.17916 29732 ft 476 kts 248°
2026-04-21 12:17 40.61932 -75.21628 30387 ft 478 kts 248°
2026-04-21 12:17 40.60225 -75.25370 30892 ft 480 kts 248°
2026-04-21 12:18 40.58520 -75.29092 31693 ft 475 kts 248°
2026-04-21 12:18 40.56829 -75.32793 32186 ft 477 kts 248°
2026-04-21 12:18 40.55122 -75.36513 32882 ft 473 kts 248°
2026-04-21 12:18 40.53440 -75.40177 33459 ft 472 kts 248°
2026-04-21 12:19 40.51762 -75.43829 34058 ft 469 kts 248°
2026-04-21 12:19 40.50080 -75.47486 34573 ft 467 kts 248°
2026-04-21 12:19 40.48407 -75.51115 35160 ft 463 kts 248°
2026-04-21 12:19 40.46743 -75.54727 35557 ft 464 kts 247°
2026-04-21 12:20 40.45073 -75.58345 35997 ft 463 kts 247°
2026-04-21 12:20 40.43413 -75.61932 36453 ft 459 kts 246°
2026-04-21 12:20 40.41763 -75.65496 36422 ft 458 kts 246°
2026-04-21 12:21 40.38472 -75.72593 36458 ft 459 kts 246°
2026-04-21 12:21 40.35155 -75.79727 36446 ft 459 kts 246°
2026-04-21 12:22 40.31837 -75.86850 36430 ft 460 kts 246°
2026-04-21 12:22 40.28500 -75.93996 36421 ft 459 kts 246°
2026-04-21 12:23 40.25188 -76.01073 36406 ft 459 kts 246°
2026-04-21 12:23 40.21858 -76.08173 36418 ft 459 kts 246°
2026-04-21 12:24 40.18515 -76.15284 36430 ft 460 kts 246°
2026-04-21 12:24 40.15180 -76.22360 36427 ft 460 kts 246°
2026-04-21 12:25 40.11822 -76.29479 36418 ft 460 kts 246°
2026-04-21 12:25 40.08526 -76.36635 36426 ft 459 kts 246°
2026-04-21 12:26 40.05252 -76.43729 36432 ft 458 kts 246°
2026-04-21 12:26 40.01967 -76.50828 36434 ft 459 kts 246°
2026-04-21 12:27 39.98680 -76.57918 36435 ft 459 kts 246°
2026-04-21 12:27 39.95356 -76.65070 36430 ft 459 kts 246°
2026-04-21 12:28 39.92054 -76.72157 36436 ft 461 kts 246°
2026-04-21 12:28 39.88724 -76.79288 36411 ft 460 kts 246°
2026-04-21 12:29 39.85417 -76.86352 36414 ft 458 kts 246°
2026-04-21 12:29 39.82099 -76.93429 36418 ft 459 kts 246°
2026-04-21 12:30 39.78791 -77.00465 36413 ft 460 kts 246°
2026-04-21 12:30 39.75461 -77.07529 36415 ft 458 kts 246°
2026-04-21 12:31 39.72131 -77.14584 36417 ft 461 kts 246°
2026-04-21 12:31 39.68799 -77.21622 36416 ft 459 kts 246°
2026-04-21 12:32 39.65466 -77.28647 36419 ft 458 kts 246°
2026-04-21 12:32 39.62130 -77.35665 36409 ft 459 kts 246°
2026-04-21 12:33 39.58787 -77.42680 36396 ft 457 kts 246°
2026-04-21 12:33 39.55449 -77.49668 36383 ft 457 kts 246°
2026-04-21 12:34 39.52120 -77.56625 36390 ft 456 kts 246°
2026-04-21 12:34 39.48764 -77.63621 36402 ft 456 kts 246°
2026-04-21 12:35 39.45430 -77.70557 36426 ft 457 kts 245°
2026-04-21 12:35 39.42083 -77.77503 36424 ft 457 kts 245°
2026-04-21 12:36 39.38708 -77.84489 36424 ft 459 kts 245°
2026-04-21 12:36 39.35693 -77.91575 36430 ft 450 kts 252°
2026-04-21 12:37 39.32927 -77.98829 36424 ft 452 kts 251°
2026-04-21 12:37 39.30087 -78.06080 36421 ft 452 kts 250°
2026-04-21 12:38 39.27246 -78.13247 36420 ft 451 kts 251°
2026-04-21 12:38 39.24387 -78.20424 36418 ft 452 kts 250°
2026-04-21 12:39 39.21519 -78.27587 36411 ft 450 kts 250°
2026-04-21 12:39 39.18661 -78.34711 36410 ft 450 kts 250°
2026-04-21 12:40 39.15784 -78.41863 36401 ft 451 kts 250°
2026-04-21 12:40 39.12901 -78.49010 36386 ft 451 kts 250°
2026-04-21 12:41 39.10014 -78.56149 36371 ft 450 kts 250°
2026-04-21 12:41 39.07129 -78.63273 36352 ft 451 kts 250°
2026-04-21 12:42 39.04234 -78.70400 36345 ft 452 kts 250°
2026-04-21 12:42 39.01329 -78.77536 36330 ft 452 kts 249°
2026-04-21 12:43 38.98414 -78.84679 36336 ft 451 kts 249°
2026-04-21 12:43 38.95514 -78.91766 36343 ft 450 kts 249°
2026-04-21 12:44 38.92604 -78.98862 36366 ft 452 kts 249°
2026-04-21 12:44 38.89667 -79.06010 36349 ft 452 kts 249°
2026-04-21 12:45 38.86745 -79.13102 36333 ft 451 kts 249°
2026-04-21 12:45 38.84087 -79.20304 36331 ft 441 kts 259°
2026-04-21 12:46 38.82620 -79.27868 36320 ft 438 kts 263°
2026-04-21 12:46 38.81240 -79.35387 36308 ft 437 kts 263°
2026-04-21 12:47 38.79857 -79.42994 36296 ft 438 kts 263°
2026-04-21 12:47 38.78484 -79.50553 36293 ft 438 kts 263°
2026-04-21 12:48 38.77105 -79.58124 36290 ft 436 kts 264°
2026-04-21 12:48 38.75730 -79.65660 36304 ft 438 kts 263°
2026-04-21 12:49 38.74334 -79.73277 36315 ft 438 kts 263°
2026-04-21 12:49 38.72942 -79.80843 36319 ft 438 kts 263°
2026-04-21 12:50 38.71547 -79.88400 36318 ft 438 kts 263°
2026-04-21 12:50 38.70143 -79.95977 36302 ft 438 kts 263°
2026-04-21 12:51 38.68737 -80.03535 36299 ft 438 kts 263°
2026-04-21 12:51 38.67321 -80.11119 36304 ft 437 kts 263°
2026-04-21 12:52 38.65904 -80.18674 36314 ft 437 kts 263°
2026-04-21 12:52 38.64492 -80.26171 36312 ft 436 kts 263°
2026-04-21 12:53 38.63068 -80.33712 36322 ft 437 kts 263°
2026-04-21 12:53 38.61641 -80.41232 36325 ft 436 kts 263°
2026-04-21 12:54 38.60207 -80.48764 36329 ft 436 kts 263°
2026-04-21 12:54 38.58774 -80.56264 36330 ft 436 kts 263°
2026-04-21 12:55 38.57341 -80.63733 36330 ft 436 kts 263°
2026-04-21 12:55 38.55893 -80.71255 36354 ft 437 kts 263°
2026-04-21 12:56 38.54438 -80.78777 36355 ft 435 kts 263°
2026-04-21 12:56 38.52990 -80.86247 36359 ft 436 kts 263°
2026-04-21 12:57 38.51533 -80.93729 36355 ft 436 kts 263°
2026-04-21 12:57 38.50068 -81.01228 36349 ft 435 kts 263°
2026-04-21 12:58 38.48606 -81.08678 36341 ft 435 kts 263°
2026-04-21 12:58 38.47142 -81.16119 36349 ft 436 kts 263°
2026-04-21 12:59 38.45663 -81.23602 36355 ft 435 kts 263°
2026-04-21 12:59 38.44183 -81.31067 36348 ft 434 kts 263°
2026-04-21 13:00 38.42705 -81.38502 36344 ft 436 kts 263°
2026-04-21 13:00 38.41209 -81.45988 36338 ft 435 kts 263°
2026-04-21 13:01 38.39722 -81.53408 36332 ft 434 kts 263°
2026-04-21 13:01 38.38227 -81.60842 36330 ft 434 kts 263°
2026-04-21 13:02 38.36732 -81.68247 36343 ft 433 kts 262°
2026-04-21 13:02 38.34277 -81.79323 36353 ft 438 kts 257°
2026-04-21 13:03 38.32258 -81.86610 36344 ft 437 kts 257°
2026-04-21 13:03 38.30222 -81.93913 36351 ft 438 kts 257°
2026-04-21 13:04 38.28191 -82.01161 36354 ft 437 kts 257°
2026-04-21 13:04 38.26140 -82.08448 36339 ft 437 kts 257°
2026-04-21 13:05 38.24102 -82.15668 36338 ft 437 kts 257°
2026-04-21 13:05 38.22043 -82.22945 36340 ft 438 kts 257°
2026-04-21 13:06 38.19985 -82.30190 36333 ft 437 kts 258°
2026-04-21 13:06 38.17920 -82.37444 36326 ft 437 kts 257°
2026-04-21 13:07 38.15868 -82.44630 36328 ft 437 kts 257°
2026-04-21 13:07 38.13796 -82.51866 36328 ft 436 kts 257°
2026-04-21 13:08 38.11719 -82.59102 36326 ft 435 kts 257°
2026-04-21 13:08 38.09665 -82.66237 36330 ft 435 kts 257°
2026-04-21 13:09 38.07587 -82.73438 36338 ft 435 kts 257°
2026-04-21 13:09 38.05508 -82.80617 36339 ft 433 kts 257°
2026-04-21 13:10 38.03428 -82.87792 36336 ft 434 kts 257°
2026-04-21 13:10 38.01353 -82.94920 36337 ft 434 kts 257°
2026-04-21 13:11 37.99259 -83.02100 36330 ft 433 kts 257°
2026-04-21 13:11 37.97175 -83.09227 36334 ft 435 kts 257°
2026-04-21 13:12 37.95073 -83.16395 36331 ft 433 kts 257°
2026-04-21 13:12 37.92979 -83.23518 36324 ft 434 kts 257°
2026-04-21 13:13 37.90875 -83.30656 36316 ft 434 kts 257°
2026-04-21 13:13 37.88761 -83.37806 36297 ft 434 kts 256°
2026-04-21 13:14 37.87707 -83.41368 35931 ft 438 kts 256°
2026-04-21 13:14 37.86656 -83.44902 35798 ft 427 kts 257°
2026-04-21 13:14 37.85608 -83.48427 35235 ft 426 kts 257°
2026-04-21 13:14 37.84578 -83.51891 34668 ft 424 kts 257°
2026-04-21 13:15 37.83551 -83.55344 34075 ft 421 kts 257°
2026-04-21 13:15 37.82519 -83.58808 33417 ft 419 kts 257°
2026-04-21 13:15 37.81492 -83.62251 32761 ft 420 kts 257°
2026-04-21 13:15 37.80465 -83.65696 32092 ft 421 kts 256°
2026-04-21 13:16 37.79442 -83.69109 31412 ft 419 kts 256°
2026-04-21 13:16 37.78402 -83.72593 30803 ft 426 kts 256°
2026-04-21 13:16 37.77350 -83.76109 30209 ft 433 kts 256°
2026-04-21 13:16 37.76287 -83.79647 29624 ft 436 kts 255°
2026-04-21 13:17 37.75210 -83.83220 29046 ft 433 kts 256°
2026-04-21 13:17 37.74150 -83.86731 28489 ft 427 kts 256°
2026-04-21 13:17 37.73110 -83.90179 27954 ft 423 kts 256°
2026-04-21 13:17 37.72061 -83.93655 27430 ft 422 kts 256°
2026-04-21 13:18 37.71024 -83.97087 26918 ft 420 kts 256°
2026-04-21 13:18 37.69993 -84.00493 26418 ft 417 kts 256°
2026-04-21 13:18 37.68954 -84.03924 25916 ft 414 kts 256°
2026-04-21 13:18 37.67937 -84.07275 25426 ft 411 kts 256°
2026-04-21 13:19 37.66929 -84.10595 24960 ft 409 kts 256°
2026-04-21 13:19 37.65905 -84.13963 24470 ft 407 kts 256°
2026-04-21 13:19 37.64953 -84.17272 24014 ft 401 kts 259°
2026-04-21 13:19 37.64105 -84.20621 23519 ft 400 kts 258°
2026-04-21 13:20 37.63533 -84.22823 23195 ft 398 kts 259°
2026-04-21 13:20 37.62406 -84.27197 22554 ft 394 kts 258°
2026-04-21 13:20 37.61556 -84.30484 22076 ft 391 kts 258°
2026-04-21 13:20 37.60718 -84.33708 21601 ft 388 kts 258°
2026-04-21 13:21 37.59888 -84.36907 21138 ft 387 kts 258°
2026-04-21 13:21 37.59058 -84.40096 20670 ft 384 kts 258°
2026-04-21 13:21 37.58223 -84.43301 20198 ft 381 kts 258°
2026-04-21 13:21 37.57404 -84.46439 19748 ft 378 kts 257°
2026-04-21 13:22 37.56592 -84.49551 19300 ft 376 kts 257°
2026-04-21 13:22 37.55770 -84.52689 18844 ft 375 kts 257°
2026-04-21 13:22 37.54962 -84.55778 18385 ft 372 kts 257°
2026-04-21 13:22 37.54156 -84.58849 17879 ft 370 kts 257°
2026-04-21 13:23 37.53351 -84.61919 17379 ft 368 kts 257°
2026-04-21 13:23 37.52549 -84.64970 16898 ft 366 kts 256°
2026-04-21 13:23 37.51761 -84.67966 16437 ft 365 kts 255°
2026-04-21 13:23 37.50965 -84.70986 16033 ft 362 kts 255°
2026-04-21 13:24 37.50175 -84.73975 16003 ft 355 kts 255°
2026-04-21 13:24 37.49387 -84.76970 15554 ft 372 kts 255°
2026-04-21 13:24 37.48575 -84.80039 14848 ft 365 kts 255°
2026-04-21 13:24 37.47785 -84.83015 14273 ft 355 kts 254°
2026-04-21 13:25 37.47017 -84.85915 13753 ft 353 kts 254°
2026-04-21 13:25 37.46434 -84.88890 13302 ft 349 kts 267°
2026-04-21 13:25 37.46571 -84.91880 13209 ft 339 kts 284°
2026-04-21 13:25 37.47433 -84.94678 13230 ft 347 kts 301°
2026-04-21 13:26 37.48911 -84.97052 13214 ft 348 kts 315°
2026-04-21 13:26 37.50671 -84.99147 13193 ft 346 kts 315°
2026-04-21 13:26 37.52435 -85.01196 13203 ft 347 kts 317°
2026-04-21 13:26 37.54227 -85.03202 13197 ft 347 kts 317°
2026-04-21 13:27 37.56055 -85.05214 13191 ft 347 kts 318°
2026-04-21 13:27 37.58002 -85.06973 13194 ft 349 kts 331°
2026-04-21 13:27 37.60305 -85.08049 13202 ft 352 kts 341°
2026-04-21 13:27 37.62629 -85.08943 13191 ft 346 kts 340°
2026-04-21 13:28 37.64862 -85.09815 13107 ft 324 kts 340°
2026-04-21 13:28 37.66952 -85.10628 12645 ft 310 kts 340°
2026-04-21 13:28 37.69016 -85.11430 11877 ft 307 kts 340°
2026-04-21 13:28 37.71028 -85.12210 11142 ft 304 kts 340°
2026-04-21 13:29 37.72989 -85.12968 10743 ft 291 kts 340°
2026-04-21 13:29 37.74963 -85.13690 9733 ft 300 kts 341°
2026-04-21 13:29 37.76931 -85.14393 9266 ft 293 kts 341°
2026-04-21 13:29 37.78885 -85.15093 9201 ft 290 kts 341°
2026-04-21 13:30 37.80849 -85.15799 9088 ft 300 kts 341°
2026-04-21 13:30 37.82859 -85.16519 9116 ft 296 kts 341°
2026-04-21 13:30 37.84839 -85.17230 9117 ft 297 kts 341°
2026-04-21 13:30 37.86837 -85.17950 8971 ft 301 kts 341°
2026-04-21 13:31 37.88831 -85.18666 8799 ft 298 kts 341°
2026-04-21 13:31 37.90830 -85.19385 8732 ft 293 kts 341°
2026-04-21 13:31 37.92789 -85.20091 8737 ft 295 kts 341°
2026-04-21 13:31 37.94753 -85.20836 8741 ft 297 kts 335°
2026-04-21 13:32 37.96511 -85.22147 8722 ft 293 kts 317°
2026-04-21 13:32 37.98037 -85.23875 8594 ft 294 kts 316°
2026-04-21 13:32 37.99530 -85.25567 8633 ft 280 kts 316°
2026-04-21 13:32 38.00938 -85.27185 8439 ft 273 kts 315°
2026-04-21 13:33 38.02330 -85.28792 8362 ft 266 kts 315°
2026-04-21 13:33 38.03681 -85.30358 8378 ft 266 kts 315°
2026-04-21 13:33 38.05059 -85.31959 8351 ft 268 kts 315°
2026-04-21 13:33 38.06427 -85.33550 8123 ft 267 kts 315°
2026-04-21 13:34 38.07789 -85.35134 7909 ft 266 kts 315°
2026-04-21 13:34 38.09137 -85.36704 7703 ft 264 kts 315°
2026-04-21 13:34 38.10498 -85.38290 7499 ft 263 kts 315°
2026-04-21 13:34 38.11837 -85.39852 7300 ft 262 kts 315°
2026-04-21 13:35 38.13171 -85.41409 7122 ft 261 kts 315°
2026-04-21 13:35 38.14518 -85.42982 6930 ft 261 kts 315°
2026-04-21 13:35 38.15837 -85.44523 6721 ft 260 kts 315°
2026-04-21 13:35 38.17183 -85.46096 6514 ft 260 kts 315°
2026-04-21 13:36 38.18501 -85.47637 6319 ft 259 kts 315°
2026-04-21 13:36 38.19810 -85.49168 6136 ft 257 kts 314°
2026-04-21 13:36 38.21133 -85.50718 5980 ft 257 kts 314°
2026-04-21 13:36 38.22442 -85.52249 5969 ft 255 kts 314°
2026-04-21 13:37 38.23736 -85.53767 5966 ft 255 kts 314°
2026-04-21 13:37 38.25032 -85.55286 5862 ft 252 kts 314°
2026-04-21 13:37 38.26334 -85.56813 5631 ft 254 kts 314°
2026-04-21 13:37 38.27636 -85.58341 5477 ft 254 kts 314°
2026-04-21 13:38 38.28936 -85.59869 5320 ft 254 kts 314°
2026-04-21 13:38 38.30220 -85.61376 5167 ft 254 kts 314°
2026-04-21 13:38 38.31506 -85.62887 5008 ft 249 kts 314°
2026-04-21 13:38 38.32767 -85.64368 4842 ft 244 kts 313°
2026-04-21 13:39 38.33999 -85.65816 4695 ft 238 kts 312°
2026-04-21 13:39 38.35203 -85.67238 4551 ft 231 kts 311°
2026-04-21 13:39 38.36272 -85.68711 4395 ft 224 kts 304°
2026-04-21 13:39 38.37244 -85.70220 4240 ft 220 kts 304°
2026-04-21 13:40 38.38221 -85.71711 4135 ft 212 kts 304°
2026-04-21 13:40 38.39136 -85.73107 4015 ft 203 kts 304°
2026-04-21 13:40 38.40028 -85.74468 3926 ft 194 kts 304°
2026-04-21 13:40 38.40875 -85.75763 3730 ft 191 kts 304°
2026-04-21 13:41 38.41559 -85.77176 3509 ft 182 kts 279°
2026-04-21 13:41 38.41427 -85.78694 3322 ft 176 kts 242°
2026-04-21 13:41 38.40526 -85.79757 3153 ft 179 kts 217°
2026-04-21 13:41 38.39532 -85.80695 2980 ft 177 kts 222°
2026-04-21 13:42 38.38436 -85.81381 2936 ft 183 kts 188°
2026-04-21 13:42 38.37154 -85.81057 2995 ft 194 kts 169°
2026-04-21 13:42 38.35824 -85.80566 2965 ft 198 kts 171°
2026-04-21 13:42 38.34525 -85.80114 2949 ft 192 kts 171°
2026-04-21 13:43 38.33243 -85.79676 2961 ft 191 kts 172°
2026-04-21 13:43 38.31936 -85.79238 2968 ft 193 kts 172°
2026-04-21 13:43 38.30648 -85.78808 2966 ft 190 kts 172°
2026-04-21 13:43 38.29389 -85.78387 2751 ft 179 kts 172°
2026-04-21 13:44 38.28251 -85.78006 2485 ft 162 kts 172°
2026-04-21 13:44 38.27187 -85.77655 2269 ft 151 kts 172°
2026-04-21 13:44 38.26205 -85.77332 2073 ft 140 kts 172°
2026-04-21 13:44 38.25304 -85.77035 1843 ft 127 kts 171°
2026-04-21 13:45 38.24472 -85.76764 1670 ft 122 kts 171°
2026-04-21 13:45 38.23633 -85.76492 1535 ft 126 kts 170°
2026-04-21 13:45 38.22782 -85.76215 1378 ft 128 kts 169°
2026-04-21 13:45 38.21918 -85.75930 1184 ft 128 kts 168°
2026-04-21 13:46 38.21054 -85.75649 1011 ft 126 kts 168°
2026-04-21 13:46 38.20209 -85.75374 867 ft 126 kts 167°
2026-04-21 13:46 38.19347 -85.75090 705 ft 128 kts 166°
2026-04-21 13:46 38.18479 -85.74797 530 ft 128 kts 168°
2026-04-21 13:47 38.17639 -85.74532 484 ft 110 kts 165°
2026-04-21 13:47 38.17023 -85.74325 475 ft 68 kts 163°
2026-04-21 13:47 38.16724 -85.74210 469 ft 32 kts 153°
2026-04-21 13:47 38.16631 -85.74098 468 ft 4 kts 121°
2026-04-21 13:48 38.16630 -85.74096 468 ft 0 kts 121°
2026-04-21 13:48 38.16630 -85.74097 468 ft 4 kts 121°
2026-04-21 13:48 38.16612 -85.74059 467 ft 6 kts 121°
2026-04-21 13:48 38.16584 -85.73998 468 ft 9 kts 119°
2026-04-21 13:49 38.16548 -85.73913 467 ft 12 kts 112°
2026-04-21 13:49 38.16527 -85.73809 468 ft 8 kts 76°
2026-04-21 13:49 38.16557 -85.73779 469 ft 0 kts 22°
2026-04-21 13:49 38.16572 -85.73772 469 ft 2 kts 22°
2026-04-21 13:50 38.16587 -85.73763 469 ft 0 kts 21°